Starlink 30763

operational
NORAD ID: 58163 Int'l Des: 2023-166 Owner: SPXS Country: US Constellation: starlink
LEOCIRCULAR

Über Starlink 30763

Beschreibung wird geladen...

Live-Position

3D-Globus wird geladen...

Nächste Überflüge

Höhenverlauf

Altitude vs Time

uPlot chart will show altitude changes over time

Zweizeiliger Elementsatz

1 58163U 23166P 25258.15300777 -.00000731 00000-0 -12559-4 0 9992
2 58163 53.1597 302.3971 0001254 40.3526 319.7568 15.30198997106471
Epoch: 15. Sept. 2025 • Age: 33 hours

Aktueller Status

Höhe 476.4 km
Geschwindigkeit 7.63 km/s
Subsatellitenpunkt 31.82°N, 136.27°E
Startdatum 29. Okt. 2023
Alter 1.8 years
Typ internet

Technische Details

Klassifizierung Payload
Masse 730.00 kg
Trockenmasse 700.00 kg
Gesamtmasse 730.00 kg
Länge 0.30 m
Durchmesser 4.10 m
Spannweite 29.00 m
Form Box + pan
Hersteller SPXS
Bus-Typ Starlink V2M
Phasenstatus In Orbit
Besitzer/Staat SPXS/US

Große Konstellationen

Loading constellations...